Location: Morlupo
(42.1333°N, 12.5000°E)
Time: 15:05:27
(UTC+00:00)

Cosmos 1844 Rocket - Pass Details

Date: 18 September 2020
Orbit: 823 x 846 km, 71.0° (Epoch: 25 October)

Event Time Altitude Azimuth Distance (km) Brightness Sun altitude
Rises 17:55:12 0° 160° (SSE) 3,343 5.5 -8.5°
Reaches altitude 10° 17:58:17 10° 143° (SE) 2,416 4.6 -9.0°
Maximum altitude 18:02:02 19° 100° (E) 1,877 3.9 -9.7°
Drops below altitude 10° 18:05:48 10° 57° (ENE) 2,433 4.7 -10.4°
Sets 18:08:54 0° 40° (NE) 3,375 5.6 -11.0°
